www.pogodaiklimat.ru

Погода и климат >> Архив погоды >> Япония >> Кусиро


ПОГОДА в Кусиро

  • Прогноз погоды в Кусиро
  • Монитор погоды в Кусиро

АРХИВ ПОГОДЫ в Кусиро

Время (UTC), дата Ветер
(напр.,м/с)
 
Видим.   Явления Облачность Т
(С)
Тd
(С)
f
(%)
Тe
(С)
Тes
(С)
Комфортность P
(гПа)
Po
(гПа)
Тmin
(С)
Tmax
(С)
R
(мм)
R24
(мм)
S
(см)
19 8.09 Ю 4 н/о н/о +19.0 +19.0 100 +21 +21 комфорт 1007.0 1002.4
20 8.09 Ю 4 н/о н/о +19.1 +19.1 100 +21 +21 комфорт 1007.2 1002.6
21 8.09 Ю 5 300 м туман 8/0
[Ac As]
+19.4 +19.4 100 +22 +22 комфорт 1007.2 1002.6
22 8.09 Ю 4 н/о н/о +20.2 +20.2 100 +24 +24 комфорт 1007.6 1003.0
23 8.09 ЮЗ 4 н/о н/о +22.6 +21.1 91 +30 +30 очень
душно
1007.8 1003.2
00 9.09 ЮЗ 4 25 км {туман} 8/3
[Cu med, cong Ac As Ci sp]
+23.7 +20.8 84 +30 +32 очень
душно
1007.6 1003.0 +18.9 0.0
02 9.09 ЮЗ 4 н/о н/о +25.1 +21.2 79 +32 +32 очень
душно
1006.9 1002.4
03 9.09 ЮЗ 5 20 км 8/1
[Cu hum Ac As Ci sp]
+24.9 +21.0 79 +31 +35 очень
душно
1006.6 1002.1
04 9.09 ЮЗ 6 н/о н/о +24.2 +20.9 82 +30 +30 очень
душно
1006.5 1002.0
05 9.09 ЮЗ 5 н/о н/о +23.1 +20.6 86 +30 +30 очень
душно
1006.0 1001.4
06 9.09 ЮЗ 4 8000 м дымка 8/1
[Cu hum Ac As Ci sp]
+23.7 +21.4 87 +30 +32 очень
душно
1006.0 1001.4
07 9.09 ЮЗ 4 н/о н/о +24.0 +21.3 85 +30 +30 очень
душно
1005.9 1001.4
08 9.09 Ю 4 н/о н/о +23.0 +20.7 87 +30 +30 очень
душно
1006.0 1001.4
09 9.09 Ю 5 8000 м дымка 9/1
[Cu med, cong Ac As Ci sp]
+23.2 +20.5 85 +31 +31 очень
душно
1006.0 1001.4
10 9.09 Ю 5 н/о н/о +22.1 +20.2 89 +28 +28 душно 1006.8 1002.2
11 9.09 Ю 4 н/о н/о +21.7 +20.2 91 +27 +27 душно 1007.0 1002.4
12 9.09 Ю 5 6000 м дымка 9/1
[St Ac As Ci sp]
+21.1 +20.1 94 +26 +26 душно 1007.0 1002.4 +26.2
13 9.09 Ю 4 н/о н/о +20.8 +20.2 96 +26 +26 душно 1007.2 1002.6
15 9.09 СВ 3 н/о н/о +21.1 +20.1 94 +26 +26 душно 1007.1 1002.5
16 9.09 СВ 2 н/о н/о +21.1 +20.3 95 +26 +26 душно 1007.2 1002.6
17 9.09 СЗ 1 н/о н/о +21.2 +20.4 95 +26 +26 душно 1007.1 1002.5
18 9.09 С 3 8000 м в посл. час ливневой дождь 9/3
[St Ac As]
+21.4 +20.6 95 +27 +27 душно 1006.9 1002.3 0.0
19 9.09 СВ 1 н/о н/о +21.6 +20.6 94 +27 +27 душно 1006.8 1002.2
21 9.09 СЗ 2 8000 м слаб. ливневой дождь 9/1
[Frnb Ac As]
+21.8 +21.1 96 +28 +28 душно 1007.5 1002.9
22 9.09 С 2 н/о н/о +23.4 +21.5 89 +32 +32 очень
душно
1007.7 1003.1
23 9.09 СЗ 2 н/о н/о +23.8 +21.5 87 +30 +30 очень
душно
1007.7 1003.1
00 10.09 ЮЗ 2 10 км {ливн. осадки} 1/1
[Cu med, cong Ac trans Ci sp]
+26.1 +22.0 78 +34 +42 очень
душно
1007.9 1003.4 +20.7 0.0
01 10.09 ЮЗ 3 н/о н/о +26.8 +20.9 70 +34 +34 очень
душно
1007.6 1003.1
02 10.09 Ю 4 н/о н/о +28.1 +20.1 62 +34 +34 очень
душно
1007.3 1002.8
03 10.09 Ю 6 40 км 3/1
[Cu med, cong Ac trans Ci sp]
+28.4 +19.9 60 +35 +39 очень
душно
1007.0 1002.5
04 10.09 Ю 5 н/о н/о +26.9 +20.5 68 +33 +33 очень
душно
1006.6 1002.1
05 10.09 Ю 5 н/о н/о +26.0 +19.9 69 +32 +32 очень
душно
1006.6 1002.1
06 10.09 СВ 9 30 км 3/3
[Cu med, cong Ci sp]
+28.2 +19.7 60 +34 +35 очень
душно
1007.4 1002.9
07 10.09 СВ 10 н/о н/о +25.6 +13.8 48 +28 +28 жарко 1008.7 1004.2
08 10.09 СВ 7 н/о н/о +24.6 +13.8 51 +27 +27 жарко 1009.8 1005.2
09 10.09 СВ 9 20 км 3/1
[Cu hum Ac trans Ci sp]
+22.9 +12.2 51 +26 +26 жарко 1011.0 1006.4
10 10.09 СВ 8 н/о н/о +21.5 +11.2 52 +23 +23 комфорт 1012.4 1007.8
11 10.09 СВ 7 н/о н/о +21.0 +9.3 47 +22 +22 комфорт 1013.6 1009.0
12 10.09 СВ 9 20 км 1/1
[Cu hum Ac trans]
+20.4 +8.4 46 +21 +21 комфорт 1014.2 1009.5 +29.6
13 10.09 СВ 8 н/о н/о +19.7 +9.3 51 +20 +20 1014.7 1010.0
15 10.09 С 3 н/о н/о +16.6 +10.7 68 +16 +16 1015.6 1010.9
16 10.09 СЗ 2 н/о н/о +15.9 +11.7 76 +16 +16 1016.0 1011.3
17 10.09 С 3 н/о н/о +16.2 +12.8 80 +16 +16 1016.0 1011.3
18 10.09 С 1 20 км 4/0
[Ci sp]
+15.3 +12.3 82 +16 +16 1016.2 1011.4
19 10.09 СВ 2 н/о н/о +14.9 +11.3 79 +15 +15 1016.6 1011.8
20 10.09 СВ 3 н/о н/о +14.0 +11.5 85 +13 +13 1016.8 1012.0
21 10.09 С 2 30 км 9/1
[Sc Ac As]
+14.6 +11.8 83 +14 +14 1017.5 1012.7
22 10.09 СВ 3 н/о н/о +15.0 +12.1 83 +14 +14 1017.3 1012.5
23 10.09 СВ 2 н/о н/о +18.1 +13.2 73 +19 +19 1017.2 1012.5
00 11.09 СВ 4 30 км 9/1
[Sc Ac As]
+19.3 +12.1 63 +21 +23 комфорт 1017.1 1012.4 +13.9
01 11.09 СВ 2 н/о н/о +20.2 +12.7 62 +23 +23 комфорт 1016.7 1012.0
02 11.09 В 3 н/о н/о +20.2 +13.4 65 +23 +23 комфорт 1016.1 1011.4
03 11.09 В 3 30 км в посл. час ливневой дождь 10/3
[Cu med, cong Ac As]
+20.1 +12.1 60 +22 +24 комфорт 1015.2 1010.5
04 11.09 СВ 3 н/о н/о +19.3 +14.1 72 +21 +21 комфорт 1014.5 1009.8
05 11.09 В 3 н/о н/о +19.5 +13.9 70 +21 +21 комфорт 1013.8 1009.1
06 11.09 СВ 3 15 км слаб. ливневой дождь 10/8
[Cu med, cong Ac As]
+18.1 +13.4 74 +19 +19 1013.8 1009.1 0.5
07 11.09 СВ 4 н/о н/о +16.7 +13.6 82 +16 +16 1013.3 1008.6
08 11.09 СВ 5 н/о н/о +16.5 +15.5 94 +16 +16 1013.3 1008.6
09 11.09 СВ 6 10 км слаб. ливневой дождь 10/8
[Cu med, cong Ac As]
+15.8 +15.0 95 +14 +14 1012.3 1007.6
10 11.09 СВ 7 н/о н/о +15.1 +14.5 96 +13 +13 1012.8 1008.1
11 11.09 СВ 5 н/о н/о +14.8 +14.7 99 +13 +13 1011.8 1007.1
12 11.09 СВ 6 5000 м слаб. ливневой дождь 10/8
[Cu med, cong Ac As]
+14.1 +13.5 96 +12 +12 1011.8 1007.0 +20.8 18
13 11.09 С 7 н/о н/о +13.7 +13.1 96 +11 +11 1011.1 1006.3
14 11.09 С 7 н/о н/о +13.8 +13.5 98 +11 +11 1010.8 1006.0
15 11.09 С 7 н/о н/о +13.9 +13.4 97 +12 +12 1010.0 1005.3
16 11.09 С 7 н/о н/о +13.9 +13.4 97 +12 +12 1009.8 1005.1
17 11.09 С 6 н/о н/о +14.0 +13.4 96 +12 +12 1009.5 1004.8
18 11.09 С 6 15 км в посл. час ливневой дождь 10/10
[Cu med, cong]
+14.3 +13.7 96 +12 +12 1009.9 1005.2 1
19 11.09 С 5 н/о н/о +14.1 +13.8 98 +12 +12 1010.2 1005.5
20 11.09 С 4 н/о н/о +14.2 +13.7 97 +13 +13 1010.7 1006.0
21 11.09 С 2 20 км слаб. ливневой дождь 10/9
[Cu med, cong Ac As]
+14.3 +14.0 98 +14 +14 1011.0 1006.3
23 11.09 СВ 3 н/о н/о +16.0 +14.9 93 +15 +15 1011.1 1006.4
00 12.09 С 3 40 км в посл. час ливневой дождь 9/8
[Cu med, cong Ac trans]
+17.2 +13.7 80 +17 +18 1011.4 1006.7 +13.6 1
01 12.09 С 5 н/о н/о +18.4 +13.3 72 +19 +19 1011.6 1006.9
02 12.09 С 5 н/о н/о +18.7 +12.0 65 +19 +19 1011.7 1007.0
03 12.09 С 7 40 км 8/5
[Cu med, cong Ac trans]
+19.9 +11.9 60 +21 +22 комфорт 1011.5 1006.9
04 12.09 С 7 н/о н/о +20.5 +11.2 55 +22 +22 комфорт 1011.5 1006.9
05 12.09 С 9 н/о н/о +20.3 +11.3 56 +21 +21 комфорт 1011.7 1007.1
06 12.09 С 10 30 км 8/5
[Cu med, cong Ac trans Ci sp]
+18.9 +10.7 59 +19 +19 1012.6 1007.9
07 12.09 С 8 н/о н/о +19.0 +11.6 62 +19 +19 1013.0 1008.3
08 12.09 СВ 5 н/о н/о +17.6 +11.4 67 +17 +17 1013.3 1008.6
09 12.09 С 4 40 км {ливн. осадки} 3/1
[Cu med, cong Ac trans Ci sp]
+16.8 +11.1 69 +16 +16 1014.1 1009.4
10 12.09 СВ 4 н/о н/о +16.0 +10.8 71 +15 +15 1015.1 1010.4
11 12.09 СВ 2 н/о н/о +15.4 +10.6 73 +16 +16 1015.5 1010.8
12 12.09 С 3 20 км {ливн. осадки} 3/1
[Cu med, cong Ac trans]
+14.8 +10.4 75 +14 +14 1015.9 1011.1 +20.9 0.0
13 12.09 СЗ 2 н/о н/о +14.7 +10.5 76 +15 +15 1016.1 1011.3
15 12.09 С 4 н/о н/о +14.0 +10.4 79 +13 +13 1016.3 1011.5
16 12.09 СЗ 2 н/о н/о +13.2 +10.6 84 +12 +12 1016.4 1011.6
17 12.09 С 3 н/о н/о +13.0 +10.4 84 +12 +12 1016.4 1011.6
18 12.09 СЗ 2 20 км 3/1
[Cu med, cong Ac trans]
+12.5 +10.6 88 +12 +12 1016.9 1012.1
19 12.09 З 2 н/о н/о +12.3 +10.2 87 +12 +12 1017.3 1012.5
20 12.09 СВ 2 н/о н/о +11.4 +10.0 91 +11 +11 1018.2 1013.4
21 12.09 СЗ 1 30 км 1/1
[Cu med, cong Ac trans]
+11.7 +10.3 91 +12 +13 1018.6 1013.8
22 12.09 З 1 н/о н/о +13.7 +10.7 82 +15 +15 1018.8 1014.0
23 12.09 З 2 н/о н/о +16.0 +11.2 73 +16 +16 1019.1 1014.3
00 13.09 З 3 50 км 3/3
[Cu med, cong]
+16.7 +11.4 71 +17 +22 1019.1 1014.4 +10.8
01 13.09 З 3 н/о н/о +17.9 +11.7 67 +18 +18 1019.1 1014.4
02 13.09 З 4 н/о н/о +18.8 +13.0 69 +20 +20 1018.8 1014.1
03 13.09 ЮЗ 5 40 км 3/3
[Cu med, cong]
+18.8 +13.2 70 +19 +24 1018.7 1014.0
04 13.09 ЮЗ 6 н/о н/о +18.6 +12.4 67 +19 +19 1018.6 1013.9
05 13.09 ЮЗ 6 н/о н/о +18.8 +13.0 69 +19 +19 1018.5 1013.8
06 13.09 ЮЗ 5 50 км 1/1
[Cu med, cong]
+18.8 +12.6 67 +19 +22 1018.5 1013.8
07 13.09 ЮЗ 5 н/о н/о +17.8 +12.9 73 +17 +17 1018.8 1014.1
08 13.09 ЮЗ 4 н/о н/о +17.5 +13.0 75 +17 +17 1018.7 1014.0
09 13.09 З 5 40 км 1/1
[Cu med, cong Ci fib]
+17.0 +13.3 79 +16 +16 1019.1 1014.4
10 13.09 ЮЗ 4 н/о н/о +16.9 +13.6 81 +17 +17 1019.9 1015.2
11 13.09 З 4 н/о н/о +16.5 +13.4 82 +16 +16 1020.7 1015.9
12 13.09 ЮЗ 1 20 км 1/1
[Cu hum Ci fib]
+16.2 +13.1 82 +17 +17 1020.3 1015.5 +19.3
13 13.09 ЮЗ 1 н/о н/о +15.7 +13.0 84 +16 +16 1020.1 1015.3
14 13.09 ЮЗ 1 н/о н/о +14.4 +12.4 88 +15 +15 1019.8 1015.0
15 13.09 СВ 2 н/о н/о +12.1 +11.5 96 +11 +11 1019.4 1014.6
16 13.09 СВ 3 н/о н/о +11.3 +10.5 95 +10 +10 1019.6 1014.8
17 13.09 СВ 2 н/о н/о +10.7 +10.3 97 +9 +9 1018.7 1013.9
18 13.09 ЮВ 3 3000 м туман на расстоянии 9/1
[St Ci sp]
+10.5 +9.9 96 +8 +8 1017.9 1013.1
19 13.09 С 3 н/о н/о +8.6 +8.5 99 +6 +6 1018.1 1013.2
21 13.09 СВ 2 1500 м туман местами 9/1
[St Ac trans Ci sp]
+10.3 +9.5 95 +9 +9 1018.4 1013.5
23 13.09 Ю 2 н/о н/о +15.8 +12.0 78 +16 +16 1017.7 1012.9
00 14.09 Ю 4 30 км {туман} 9/4
[Cu med, cong Ac trans Ci sp]
+18.4 +15.3 82 +19 +21 1016.9 1012.2 +8.6
01 14.09 Ю 9 н/о н/о +19.3 +15.4 78 +20 +20 1016.1 1011.4
02 14.09 Ю 10 н/о н/о +18.7 +15.0 79 +19 +19 1015.5 1010.8
03 14.09 Ю 11 20 км 9/3
[Cu med, cong Ac As Ci sp]
+19.7 +15.2 75 +21 +21 комфорт 1015.0 1010.3
04 14.09 Ю 11 н/о н/о +19.2 +15.5 79 +20 +20 1014.0 1009.3
05 14.09 Ю 10 н/о н/о +19.0 +15.9 82 +19 +19 1013.6 1008.9
06 14.09 Ю 10 20 км 9/3
[Cu med, cong Ac trans Ci sp]
+19.4 +16.3 82 +20 +20 1013.2 1008.5
07 14.09 Ю 9 н/о н/о +18.9 +17.1 89 +19 +19 1013.1 1008.4
08 14.09 Ю 9 н/о н/о +18.8 +17.1 90 +19 +19 1012.9 1008.2
09 14.09 Ю 9 20 км 9/1
[Cu med, cong Ac As]
+18.8 +16.8 88 +19 +19 1012.8 1008.1
10 14.09 Ю 9 н/о н/о +18.8 +16.8 88 +19 +19 1013.0 1008.3
11 14.09 Ю 9 н/о н/о +18.8 +16.6 87 +19 +19 1013.1 1008.4
12 14.09 Ю 9 15 км 9/1
[Cu med, cong Ac As]
+18.7 +16.5 87 +19 +19 1012.9 1008.2 +20.2
13 14.09 Ю 9 н/о н/о +18.7 +16.5 87 +19 +19 1012.7 1008.0
14 14.09 Ю 8 н/о н/о +18.7 +16.7 88 +19 +19 1012.5 1007.8
15 14.09 ЮЗ 6 н/о н/о +18.3 +16.8 91 +18 +18 1012.5 1007.8
16 14.09 ЮЗ 4 н/о н/о +18.5 +17.0 91 +19 +19 1012.2 1007.5
17 14.09 ЮЗ 5 н/о н/о +18.5 +17.0 91 +19 +19 1012.0 1007.3
18 14.09 Ю 5 15 км 10/10
[St]
+18.2 +17.2 94 +18 +18 1010.9 1006.2
19 14.09 Ю 3 н/о н/о +18.2 +17.4 95 +19 +19 1011.4 1006.7
20 14.09 Ю 3 н/о н/о +18.2 +17.6 96 +19 +19 1011.4 1006.7
21 14.09 Ю 2 8000 м дымка 9/9
[St]
+18.3 +17.8 97 +20 +20 1011.5 1006.8
22 14.09 Ю 2 н/о н/о +18.6 +18.0 96 +20 +20 1011.5 1006.8
23 14.09 СЗ 2 н/о н/о +18.5 +18.0 97 +20 +20 1011.9 1007.2
00 15.09 СВ 3 10 км 9/8
[St Ac As]
+21.0 +18.6 86 +26 +27 душно 1012.1 1007.5 +18.0
01 15.09 СВ 4 н/о н/о +21.5 +18.5 83 +26 +26 душно 1012.0 1007.4
02 15.09 СВ 5 н/о н/о +21.7 +18.1 80 +26 +26 душно 1011.7 1007.1
03 15.09 В 3 20 км в посл. час ливневой дождь 10/8
[Cu med, cong Ac As]
+21.4 +18.2 82 +26 +26 душно 1011.4 1006.8
04 15.09 СВ 4 н/о н/о +21.3 +18.5 84 +26 +26 душно 1011.4 1006.8
05 15.09 С 5 н/о н/о +20.7 +18.1 85 +25 +25 комфорт 1011.5 1006.9
06 15.09 СВ 5 10 км слаб. ливневой дождь 10/8
[Cu med, cong Ac As]
+19.5 +18.0 91 +22 +22 комфорт 1011.8 1007.1 0.5
07 15.09 СВ 4 н/о н/о +19.5 +18.2 92 +22 +22 комфорт 1012.0 1007.3
08 15.09 СВ 4 н/о н/о +19.4 +18.2 93 +22 +22 комфорт 1012.3 1007.6
09 15.09 СВ 5 10 км слаб. ливневой дождь 9/6
[Cu med, cong Ac As]
+19.1 +18.1 94 +21 +21 комфорт 1012.8 1008.1
10 15.09 СВ 4 н/о н/о +18.9 +18.3 96 +20 +20 1013.4 1008.7
11 15.09 СВ 4 н/о н/о +18.7 +17.9 95 +20 +20 1013.9 1009.2
12 15.09 СВ 5 15 км {ливн. осадки} 9/9
[Cu med, cong Ac As]
+18.4 +17.4 94 +19 +19 1013.7 1009.0 +21.7 0.5
13 15.09 СВ 5 н/о н/о +18.1 +17.0 93 +18 +18 1013.9 1009.2
14 15.09 СВ 4 н/о н/о +17.8 +17.0 95 +18 +18 1014.1 1009.4
15 15.09 С 4 н/о н/о +17.6 +17.0 96 +17 +17 1014.0 1009.3
16 15.09 СВ 4 н/о н/о +17.5 +16.9 96 +17 +17 1013.5 1008.8
17 15.09 С 5 н/о н/о +17.3 +16.8 97 +17 +17 1013.0 1008.3
18 15.09 С 5 8000 м дымка 9/9
[St]
+17.3 +16.8 97 +17 +17 1012.8 1008.1
19 15.09 СВ 5 н/о н/о +17.4 +16.9 97 +17 +17 1012.5 1007.8

 

Местоположение метеостанции Кусиро (Япония): широта 42.98 долгота 144.38 высота над уровнем моря 39 м.

В архиве по умолчанию представлена погода в Кусиро за последнюю неделю. Архивные данные за месяц целиком и за предыдущие месяцы, начиная с января 2011 года, Вы можете получить, выбрав интересующий диапазон дат из раскрывающегося списка и нажав кнопку "Ввод!".


*Определитесь, кто Вы:
робот инопланетянин человек

Внимание! Время в таблицах - всемирное. Для получения местного времени необходимо прибавить поправку, которая равна 9 ч.

Смотрите также архив погоды в соседних городах и на ближайших метеорологических станциях:

Погода в Обихиро (Япония) (95 км)
Погода в Немуро (Япония) (105 км)
Погода в Хироо (Япония) (116 км)
Погода в Абасири (Япония) (116 км)
Погода в Уракава (Япония) (159 км)
Погода в Южно-Курильске (Сахалинская область, Россия) (163 км)
Погода в Момбецу (Япония) (173 км)
Погода в Асахикаве (Япония) (185 км)
Погода в Омурайсу (Япония) (211 км)
Погода в Ивамидзаве (Япония) (213 км)

Пояснения к столбцам:

Ветер - указаны скорость ветра в м/с - средняя за 10 мин, порывы в срок и между сроками (в фигурных скобках) и направление, откуда дует ветер: С - северный, СВ - северо-восточный, В - восточный, ЮВ - юго-восточный, Ю - южный, ЮЗ - юго-западный, З - западный, СЗ - северо-западный.
Видимость - горизонтальная дальность видимости в метрах или километрах. При видимости от 1 до 10 км при отсутствии осадков обычно наблюдается дымка, при ухудшении видимости до 1 км и менее - туман. В сухую погоду видимость может ухудшаться дымом, пылью или мглою.
Явления - указаны атмосферные явления, наблюдавшиеся в срок или в последний час перед сроком; фигурными скобками обозначены явления, наблюдавшиеся между сроками (за 1-3 часа до срока); квадратными скобками обозначены град или гололедные отложения с указанием их диаметра в мм.
Облачность - указаны через наклонную черту общая и нижняя облачность в баллах и высота нижней границы облаков в метрах; квадратными скобками обозначены формы облаков: Ci - перистые, Cs - перисто-слоистые, Cc - перисто-кучевые, Ac - высококучевые, As - высокослоистые, Sc - слоисто-кучевые, Ns - слоисто-дождевые, Cu - кучевые, Cb - кучево-дождевые. Подробнее классификацию облаков см. в Атласе облаков (PDF).
T - Температура воздуха - температура, измеренная на высоте 2 м над землей.
Td - Температура точки росы - температура, при понижении до которой содержащийся в воздухе водяной пар достигнет насыщения.
f - Относительная влажность воздуха - влажноcть воздуха, измеренная на высоте 2 м над землей.
Te - Эффективная температура - температура, которую ощущает одетый по сезону человек в тени. Характеристика душности погоды. При расчете учитывается влияние влажности воздуха и скорости ветра на теплоощущения человека.
Tes - Эффективная температура на солнце - температура, которую ощущает человек, с поправкой на солнечный нагрев. Характеристика знойности погоды. Зависит от высоты солнца над горизонтом, облачности и скорости ветра. Ночью, в пасмурную погоду, а также при ветре 12 м/с и более поправка равна нулю.
P - Атмосферное давление - приведенное к уровню моря атмосферное давление.
Po - Атмосферное давление - измеренное на уровне метеостанции атмосферное давление.
Tmin - Минимальная температура - минимум температуры воздуха на высоте 2 м над землей.
Tmax - Максимальная температура - максимум температуры воздуха на высоте 2 м над землей.
R - Количество осадков - Количество выпавших осадков за период времени, мм. При наведении курсора мыши на число - период времени, за который выпало указанное количество осадков.
R24 - Количество осадков - Количество выпавших осадков за 24 часа, мм.
S - Снежный покров - Высота снежного покрова, см. При наведении курсора мыши на число - состояние снежного покрова и степень покрытия местности в баллах.